Regional Weather Roundup
Issued by NWS

Home | Current Version | Previous Version | Text Only | Print | Product List | Glossary On
Versions: 1 2 3 4 5 6 7 8 9 10 11 12 13 14 15 16 17 18 19 20 21 22 23 24 25 26 27 28 29 30 31 32 33 34 35 36 37 38 39 40 41 42 43 44 45 46 47 48 49 50
000
ASUS43 KIND 300109
RWRIN

WEATHER ROUNDUP FOR INDIANA
NATIONAL WEATHER SERVICE INDIANAPOLIS IN
900 PM EDT MON MAY 29 2017

NOTE: "FAIR" INDICATES FEW OR NO CLOUDS BELOW 12,000 FEET WITH NO
SIGNIFICANT WEATHER AND/OR OBSTRUCTIONS TO VISIBILITY.

* - STATION DOES NOT REPORT WEATHER SUCH AS PRECIPITATION OR FOG.

+ - STATION NOT QUALITY CONTROLLED BY THE NATIONAL WEATHER SERVICE.
    USE DATA WITH CAUTION...ESPECIALLY DEWPOINT AND RELATIVE
    HUMIDITY OBSERVATIONS.

INZ001>003-010>013-019-020-300200-
NORTHWEST INDIANA

CITY           SKY/WX    TMP DP  RH WIND       PRES   REMARKS
GARY /AIRPORT/ PTCLDY    73  37  27 W17       29.87R
KNOX *+        CLEAR     70  32  24 W13       29.87R
LA PORTE +     CLEAR     67  45  45 NW5       29.88R
MICHIGAN CITY+ PTCLDY    63  45  51 NW3       29.87S
MONTICELLO +   PTCLDY    71  46  40 W8        29.87R
RENSSELAER +   CLEAR     72  32  23 NW6       29.88R
VALPARAISO     CLEAR     71  44  37 W7        29.87R

$$

LMZ046-743>745-300200-
SOUTHERN LAKE MICHIGAN

STATION/POSITION TIME  TEMP    WIND        PRES    WAVE
                       AIR SEA DIR/SP/G            HT
                 (UTC) (F)     (DEG/KT/KT) (MB)    (FT)
BURNS HARBOR     0030   65     280/  9/ 12 1011.9R
MICHIGAN CITY    0040   60     210/  4/  5   N/A
5NW MICH CITY    0100   59 56  280/  6/  8   N/A     2

$$

INZ004-005-014>016-021>024-300200-
NORTH CENTRAL INDIANA

CITY           SKY/WX    TMP DP  RH WIND       PRES   REMARKS
ELKHART        PTCLDY    68  43  40 NW6       29.87R
GOSHEN         MOCLDY    69  41  36 NW12      29.87R
LOGANSPORT +   MOCLDY    70  50  49 W5        29.88S
PERU/GRISSOM   MOCLDY    68  54  59 W5        29.85R
ROCHESTER +    CLEAR     73  45  35 W6        29.87S
SOUTH BEND     CLEAR     62  47  57 NW5       29.87R
WARSAW +       MOCLDY    70  50  49 NW5       29.87R

$$

INZ006>009-017-018-025>027-300200-
NORTHEAST INDIANA

CITY           SKY/WX    TMP DP  RH WIND       PRES   REMARKS
ANGOLA *+      CLEAR     64  57  77 CALM      29.86S
AUBURN +       CLEAR     70  46  43 W5        29.87R
FORT WAYNE     CLOUDY    71  53  52 W8        29.87R
HUNTINGTON +   CLOUDY    71  51  49 W5        29.87R
KENDALLVILLE + PTCLDY    66  51  57 CALM      29.87R

$$

INZ028-029-035-036-043>045-051>053-300200-
WEST CENTRAL INDIANA

CITY           SKY/WX    TMP DP  RH WIND       PRES   REMARKS
CRAWFORDSVL +  CLOUDY    -9 -20  57 W5        29.89S WCI -20
GREENCASTLE +  PTCLDY    70  50  49 CALM      29.89F
LAFAYETTE      LGT RAIN  65  53  65 NW8G23    29.88R
TERRE HAUTE    MOCLDY    75  50  41 SW7       29.88S

$$

INZ030>032-037>040-046>048-054>057-064-065-300200-
CENTRAL INDIANA

CITY           SKY/WX    TMP DP  RH WIND       PRES   REMARKS
CP ATTERBURY + CLEAR     70  57  64 SW3       29.91S
COLUMBUS       CLEAR     73  50  43 SW7       29.91R
FISHERS *+     PTCLDY    72  54  53 CALM      29.89
FRANKFORT +    CLOUDY    72  58  62 W5        29.90S
GREENWOOD *+   CLEAR     74  50  42 SW3       29.90S
INDIANAPOLIS   MOCLDY    73  50  44 SW8       29.88S
-EAGLE CREEK   PTCLDY    75  48  38 SW5       29.88S
KOKOMO +       MOCLDY    73  53  49 W7        29.89R
MARION +       CLOUDY    70  55  60 W7        29.89S
MT COMFORT *+    N/A    N/A N/A N/A MISG        N/A
SHELBYVILLE    PTCLDY    73  56  54 SW7       29.89R
ZIONSVILLE +   LGT RAIN  71  56  59 W3        29.90S

$$

INZ033-034-041-042-049-050-058-059-300200-
EAST CENTRAL INDIANA

CITY           SKY/WX    TMP DP  RH WIND       PRES   REMARKS
MUNCIE         LGT RAIN  73  53  49 SW5       29.89R
RICHMOND +     MOCLDY    70  57  64 SW8       29.92S

$$

INZ060-061-067>069-081>083-085>088-300200-
SOUTHWEST INDIANA

CITY           SKY/WX    TMP DP  RH WIND       PRES   REMARKS
EVANSVILLE     PTCLDY    77  52  41 CALM      29.92R
HUNTINGBURG *+ CLEAR     76  54  46 S6        29.93R
WASHINGTON +   MOCLDY    73  50  43 SW6       29.90S

$$

INZ062-063-066-070>080-084-089>092-300200-
SOUTH CENTRAL AND SOUTHEAST INDIANA

CITY           SKY/WX    TMP DP  RH WIND       PRES   REMARKS
BEDFORD +      CLEAR     73  50  43 CALM      29.91
BLOOMINGTON    CLEAR     70  54  56 SW3       29.90S
MADISON *+     CLEAR     72  55  56 S5        29.95S
NORTH VERNON + PTCLDY    72  55  56 S6        29.92R
SEYMOUR +      PTCLDY    75  57  53 S6        29.91R

$$





USA.gov is the U.S. government's official web portal to all federal, state and local government web resources and services.